Location: Ladrillo (historical)
(32.8195°N, 117.2231°W)
Time: 08:48:08
(UTC+00:00)

FO-99 - Pass Details

Date: 19 April 2021
Orbit: 472 x 506 km, 97.2° (Epoch: 09 May)

Event Time Altitude Azimuth Distance (km) Brightness Sun altitude
Exits shadow 03:59:24 50° 172° (S) 647 ? -20.0°
Maximum altitude 04:00:18 87° 261° (W) 511 ? -20.1°
Drops below altitude 10° 04:04:01 10° 348° (NNW) 1,723 ? -20.8°
Sets 04:06:07 0° 349° (N) 2,610 ? -21.2°
